Find Connecta T4.2

NORAD ID: 60522 Int'l Des: 2024-149 Owner: PLNSST Country: TR Constellation: plan-s operational
LEOCIRCULARRETROGRADESSO

实时位置

正在加载3D地球...

关于 Connecta T4.2

正在加载描述...

即将过境

Passes for default location (London). Set your location on the main map for personalized predictions.

高度历史

Loading altitude history...

两行轨道根数

1 60522U 24149BG 26119.45338211 .00004643 00000-0 19711-3 0 9990
2 60522 97.3846 198.3522 0007916 128.7631 231.4315 15.23543648 94479
Epoch: Apr 29, 2026 • Age: 11 hours

当前状态

高度 504.1 km
速度 7.62 km/s
星下点 81.87°N, 109.4°W
发射日期 Aug 16, 2024
运行时间 1.7 years
类型 other

技术详情

分类 Payload
质量 10.00 kg
干质量 10.00 kg
总质量 10.00 kg
长度 0.30 m
直径 0.20 m
跨度 0.30 m
形状 Box
制造商 PLNSST
平台类型 Cubesat 6U
阶段状态 In Orbit
所有者/国家 PLNSST/TR

Most Searched